Location: Heiligenberg
(48.5381°N, 7.3897°E)
Time: 00:09:10
(UTC+00:00)

ADEOS Rocket - Pass Details

Date: 26 May 2022
Orbit: 859 x 1305 km, 98.8° (Epoch: 02 July)

Event Time Altitude Azimuth Distance (km) Brightness Sun altitude
Exits shadow 00:42:15 17° 247° (WSW) 2,097 4.4 -18.4°
Maximum altitude 00:44:09 20° 272° (W) 1,973 4.4 -18.3°
Drops below altitude 10° 00:48:23 10° 318° (NW) 2,679 5.7 -18.1°
Sets 00:51:41 0° 335° (NNW) 3,704 6.7 -17.9°
